STARLINK-11309 [DTC] (61202 NORAD) Tracking and Keplerian Element Data

This shows tracking and keplerian element data for the satellite.

Feedback or suggestion? Click here.




ElementValue
Catalog61202
NameSTARLINK-11309 [DTC]
Epoch Orbit377
Epoch Day286.45431229
Epoch Year2024
RAAN187.4878
Inclination53.1557
Eccentricity0.0001036
Argument of Perigee93.7084
Mean Anonmoly266.4055
Mean Motion15.76780431
Decay Rate0.00051892
L11 61202U 24171C 24286.45431229 .00051892 00000+0 31839-3 0 9999
L22 61202 53.1557 187.4878 0001036 93.7084 266.4055 15.76780431 3770



Live tracking and technical data element details for STARLINK-11309 [DTC] (NORAD 61202). STARLINK-11309 [DTC] can be tracked NOW for your location showing map with azimuth and elevation plus other details from your city location.







IsCatalogInMostPopularTable: catalog: 61202, numindb: 23
Update: records affected: 1



GetName: 61202 STARLINK-11309 [DTC]

Hit Count: updated at: Wed, 04 Dec 2024 09:35:25 GMT